Location: Marse
(42.1502°N, 110.9866°W)
Time: 14:35:32
(UTC+00:00)

RS-44 - Visible Passes

Search period start: 25 June 2022 00:00
Search period end: 05 July 2022 00:00
Orbit: 1175 x 1509 km, 82.5° (Epoch: 24 June)

Date Brightness Start Highest point End Pass type
(mag) Time Alt. Az. Time Alt. Az. Time Alt. Az.
25 Jun ? 04:03:16 10° S 04:10:59 63° E 04:19:20 10° NNE visible
25 Jun ? 05:58:25 10° WSW 06:05:05 28° WNW 06:12:12 10° N visible
26 Jun ? 04:26:46 10° S 04:34:41 87° W 04:43:18 10° N visible
26 Jun ? 06:24:13 10° WSW 06:29:34 19° WNW 06:35:10 10° NNW visible
27 Jun ? 04:50:46 10° SSW 04:58:36 59° WNW 05:07:04 10° N visible
27 Jun ? 06:51:41 10° WNW 06:54:18 12° NW 06:56:57 10° NW visible
28 Jun ? 03:21:40 10° SSE 03:29:09 46° E 03:37:11 10° NNE visible
28 Jun ? 05:15:19 10° SW 05:22:43 39° WNW 05:30:39 10° N visible
29 Jun ? 03:44:47 10° S 03:52:43 71° E 04:01:18 10° NNE visible
29 Jun ? 05:40:30 10° WSW 05:47:02 26° WNW 05:53:57 10° N visible
30 Jun ? 04:08:26 10° SSW 04:16:29 79° W 04:25:12 10° N visible
30 Jun ? 06:06:35 10° W 06:11:35 17° WNW 06:16:47 10° NNW visible
01 Jul ? 04:32:35 10° SSW 04:40:27 53° WNW 04:48:56 10° N visible
01 Jul ? 06:35:16 10° WNW 06:36:23 10° NW 06:37:31 10° NW visible
02 Jul ? 04:57:17 10° SW 05:04:37 35° WNW 05:12:27 10° N visible
03 Jul ? 03:26:22 10° S 03:34:30 79° E 03:43:14 10° N visible
03 Jul ? 05:22:40 10° WSW 05:29:01 24° WNW 05:35:40 10° NNW visible
04 Jul ? 03:50:09 10° SSW 03:58:20 72° W 04:07:07 10° N visible
04 Jul ? 05:49:05 10° W 05:53:37 15° WNW 05:58:19 10° NNW visible
